Time,TemperatureF,DewpointF,PressureIn,WindDirection,WindDirectionDegrees,WindSpeedMPH,WindSpeedGustMPH,Humidity,HourlyPrecipIn,Conditions,Clouds,dailyrainin,SolarRadiationWatts/m^2,SoftwareType,DateUTC
2013-02-20 00:00:00,39.9,29.5,29.83,NNE,18,1.0,10.0,66,0.00,,,0.10,0.0,meteohub,2013-02-20 05:00:00,
2013-02-20 00:01:00,39.7,29.3,29.83,North,350,3.0,10.0,66,0.00,,,0.10,0.0,meteohub,2013-02-20 05:01:00,
2013-02-20 00:02:00,39.7,29.3,29.83,NNE,14,1.0,10.0,66,0.00,,,0.10,0.0,meteohub,2013-02-20 05:02:00,
2013-02-20 00:07:00,39.7,29.3,29.83,NNW,333,1.0,10.0,66,0.00,,,0.10,0.0,meteohub,2013-02-20 05:07:00,
2013-02-20 00:12:00,39.6,29.1,29.83,North,0,0.0,9.0,66,0.00,,,0.10,0.0,meteohub,2013-02-20 05:12:00,
2013-02-20 00:17:00,39.4,28.9,29.83,NNW,342,5.0,9.0,66,0.00,,,0.00,0.0,meteohub,2013-02-20 05:17:00,
2013-02-20 00:22:00,39.4,28.9,29.83,North,350,3.0,9.0,66,0.00,,,0.00,0.0,meteohub,2013-02-20 05:22:00,
2013-02-20 00:28:00,39.4,28.9,29.83,North,355,7.0,11.0,66,0.00,,,0.00,0.0,meteohub,2013-02-20 05:28:00,
2013-02-20 00:33:00,39.2,28.4,29.82,NNE,13,8.0,11.0,65,0.00,,,0.00,0.0,meteohub,2013-02-20 05:33:00,
2013-02-20 00:38:00,39.2,28.4,29.83,North,355,5.0,11.0,65,0.00,,,0.00,0.0,meteohub,2013-02-20 05:38:00,
2013-02-20 00:43:00,39.0,28.2,29.83,NNW,340,0.0,11.0,65,0.00,,,0.00,0.0,meteohub,2013-02-20 05:43:00,
2013-02-20 00:48:00,38.8,28.0,29.83,North,349,9.0,12.0,65,0.00,,,0.00,0.0,meteohub,2013-02-20 05:48:00,
2013-02-20 00:53:00,39.0,28.2,29.83,North,10,1.0,12.0,65,0.00,,,0.00,0.0,meteohub,2013-02-20 05:53:00,
2013-02-20 00:58:00,38.8,28.0,29.84,North,5,1.0,12.0,65,0.00,,,0.00,0.0,meteohub,2013-02-20 05:58:00,
2013-02-20 01:03:00,38.8,28.0,29.84,NNW,348,0.0,13.0,65,0.00,,,0.00,0.0,meteohub,2013-02-20 06:03:00,
2013-02-20 01:08:00,38.7,27.9,29.84,North,350,1.0,13.0,65,0.00,,,0.00,0.0,meteohub,2013-02-20 06:08:00,
2013-02-20 01:13:00,38.5,28.0,29.84,North,0,7.0,13.0,66,0.00,,,0.00,0.0,meteohub,2013-02-20 06:13:00,
2013-02-20 01:18:00,38.5,27.7,29.84,NNW,337,5.0,8.0,65,0.00,,,0.00,0.0,meteohub,2013-02-20 06:18:00,
2013-02-20 01:23:00,38.5,27.7,29.84,North,0,9.0,9.0,65,0.00,,,0.00,0.0,meteohub,2013-02-20 06:23:00,
2013-02-20 01:28:00,38.7,27.1,29.84,NNW,333,4.0,12.0,63,0.00,,,0.00,0.0,meteohub,2013-02-20 06:28:00,
2013-02-20 01:33:00,38.7,27.1,29.84,NNE,26,5.0,12.0,63,0.00,,,0.00,0.0,meteohub,2013-02-20 06:33:00,
2013-02-20 01:39:00,38.7,27.1,29.84,NNE,14,4.0,12.0,63,0.00,,,0.00,0.0,meteohub,2013-02-20 06:39:00,
2013-02-20 01:44:00,38.5,26.6,29.84,NNE,26,5.0,10.0,62,0.00,,,0.00,0.0,meteohub,2013-02-20 06:44:00,
2013-02-20 01:49:00,38.5,26.6,29.84,North,355,5.0,10.0,62,0.00,,,0.00,0.0,meteohub,2013-02-20 06:49:00,
2013-02-20 01:54:00,38.5,26.6,29.84,NNE,23,0.0,10.0,62,0.00,,,0.00,0.0,meteohub,2013-02-20 06:54:00,
2013-02-20 01:59:00,38.5,26.2,29.84,North,0,3.0,13.0,61,0.00,,,0.00,0.0,meteohub,2013-02-20 06:59:00,
2013-02-20 02:04:00,38.3,26.4,29.85,NNW,341,4.0,13.0,62,0.00,,,0.00,0.0,meteohub,2013-02-20 07:04:00,
2013-02-20 02:09:00,38.3,26.1,29.85,North,351,0.0,13.0,61,0.00,,,0.00,0.0,meteohub,2013-02-20 07:09:00,
2013-02-20 02:14:00,38.3,26.4,29.85,WNW,283,5.0,10.0,62,0.00,,,0.00,0.0,meteohub,2013-02-20 07:14:00,
2013-02-20 02:19:00,38.1,25.9,29.85,NNE,13,1.0,8.0,61,0.00,,,0.00,0.0,meteohub,2013-02-20 07:19:00,
2013-02-20 02:24:00,38.3,26.1,29.85,North,0,3.0,8.0,61,0.00,,,0.00,0.0,meteohub,2013-02-20 07:24:00,
2013-02-20 02:29:00,38.1,25.9,29.86,North,350,1.0,8.0,61,0.00,,,0.00,0.0,meteohub,2013-02-20 07:29:00,
2013-02-20 02:34:00,38.1,25.9,29.86,NNW,337,3.0,10.0,61,0.00,,,0.00,0.0,meteohub,2013-02-20 07:34:00,
2013-02-20 02:39:00,38.1,25.9,29.86,NNW,335,3.0,10.0,61,0.00,,,0.00,0.0,meteohub,2013-02-20 07:39:00,
2013-02-20 02:44:00,38.3,25.7,29.86,NNW,334,3.0,10.0,60,0.00,,,0.00,0.0,meteohub,2013-02-20 07:44:00,
2013-02-20 02:49:00,38.3,26.1,29.86,North,349,1.0,12.0,61,0.00,,,0.00,0.0,meteohub,2013-02-20 07:49:00,
2013-02-20 02:55:00,38.1,26.2,29.86,NNE,15,2.0,12.0,62,0.00,,,0.00,0.0,meteohub,2013-02-20 07:55:00,
2013-02-20 03:00:00,37.8,26.2,29.86,WNW,297,4.0,12.0,63,0.00,,,0.00,0.0,meteohub,2013-02-20 08:00:00,
2013-02-20 03:05:00,37.4,26.4,29.86,ENE,58,1.0,12.0,64,0.00,,,0.00,0.0,meteohub,2013-02-20 08:05:00,
2013-02-20 03:10:00,37.0,26.4,29.86,North,355,6.0,12.0,65,0.00,,,0.00,0.0,meteohub,2013-02-20 08:10:00,
2013-02-20 03:15:00,37.0,26.4,29.86,NNE,17,3.0,12.0,65,0.00,,,0.00,0.0,meteohub,2013-02-20 08:15:00,
2013-02-20 03:20:00,36.9,26.2,29.86,North,350,3.0,12.0,65,0.00,,,0.00,0.0,meteohub,2013-02-20 08:20:00,
2013-02-20 03:25:00,36.9,25.9,29.86,NNW,334,3.0,12.0,64,0.00,,,0.00,0.0,meteohub,2013-02-20 08:25:00,
2013-02-20 03:30:00,36.7,25.7,29.86,North,0,6.0,9.0,64,0.00,,,0.00,0.0,meteohub,2013-02-20 08:30:00,
2013-02-20 03:35:00,36.5,25.2,29.87,WNW,294,8.0,9.0,63,0.00,,,0.00,0.0,meteohub,2013-02-20 08:35:00,
2013-02-20 03:40:00,36.3,25.0,29.87,North,355,4.0,11.0,63,0.00,,,0.00,0.0,meteohub,2013-02-20 08:40:00,
2013-02-20 03:45:00,36.3,25.0,29.87,NW,323,3.0,11.0,63,0.00,,,0.00,0.0,meteohub,2013-02-20 08:45:00,
2013-02-20 03:51:00,36.3,24.6,29.87,NW,321,4.0,11.0,62,0.00,,,0.00,0.0,meteohub,2013-02-20 08:51:00,
2013-02-20 03:56:00,36.1,24.4,29.88,NNW,338,3.0,11.0,62,0.00,,,0.00,0.0,meteohub,2013-02-20 08:56:00,
2013-02-20 04:01:00,36.0,23.9,29.88,NNE,21,4.0,15.0,61,0.00,,,0.00,0.0,meteohub,2013-02-20 09:01:00,
2013-02-20 04:06:00,35.8,23.7,29.88,NW,325,9.0,15.0,61,0.00,,,0.00,0.0,meteohub,2013-02-20 09:06:00,
2013-02-20 04:11:00,35.8,23.7,29.88,NNW,339,5.0,12.0,61,0.00,,,0.00,0.0,meteohub,2013-02-20 09:11:00,
2013-02-20 04:16:00,35.4,23.7,29.88,NNE,15,8.0,12.0,62,0.00,,,0.00,0.0,meteohub,2013-02-20 09:16:00,
2013-02-20 04:21:00,35.2,23.2,29.88,North,355,3.0,11.0,61,0.00,,,0.00,0.0,meteohub,2013-02-20 09:21:00,
2013-02-20 04:26:00,35.2,23.2,29.88,North,0,1.0,11.0,61,0.00,,,0.00,0.0,meteohub,2013-02-20 09:26:00,
2013-02-20 04:31:00,35.1,23.0,29.88,NNE,26,0.0,11.0,61,0.00,,,0.00,0.0,meteohub,2013-02-20 09:31:00,
2013-02-20 04:36:00,34.9,23.2,29.89,NNE,27,1.0,11.0,62,0.00,,,0.00,0.0,meteohub,2013-02-20 09:36:00,
2013-02-20 04:41:00,34.9,22.8,29.89,North,355,6.0,11.0,61,0.00,,,0.00,0.0,meteohub,2013-02-20 09:41:00,
2013-02-20 04:46:00,34.9,22.8,29.89,NE,40,3.0,11.0,61,0.00,,,0.00,0.0,meteohub,2013-02-20 09:46:00,
2013-02-20 04:51:00,34.9,22.8,29.89,North,5,5.0,10.0,61,0.00,,,0.00,0.0,meteohub,2013-02-20 09:51:00,
2013-02-20 04:56:00,34.7,23.0,29.89,North,351,4.0,10.0,62,0.00,,,0.00,0.0,meteohub,2013-02-20 09:56:00,
2013-02-20 05:02:00,34.5,22.8,29.89,North,350,4.0,10.0,62,0.00,,,0.00,0.0,meteohub,2013-02-20 10:02:00,
2013-02-20 05:07:00,34.3,22.3,29.89,North,11,8.0,10.0,61,0.00,,,0.00,0.0,meteohub,2013-02-20 10:07:00,
2013-02-20 05:12:00,34.5,22.5,29.90,NNW,340,5.0,10.0,61,0.00,,,0.00,0.0,meteohub,2013-02-20 10:12:00,
2013-02-20 05:17:00,34.5,22.5,29.90,NNW,337,5.0,12.0,61,0.00,,,0.00,0.0,meteohub,2013-02-20 10:17:00,
2013-02-20 05:22:00,34.5,22.5,29.90,North,355,3.0,12.0,61,0.00,,,0.00,0.0,meteohub,2013-02-20 10:22:00,
2013-02-20 05:27:00,34.3,22.3,29.90,North,350,4.0,12.0,61,0.00,,,0.00,0.0,meteohub,2013-02-20 10:27:00,
2013-02-20 05:32:00,34.3,22.3,29.91,NW,326,8.0,12.0,61,0.00,,,0.00,0.0,meteohub,2013-02-20 10:32:00,
2013-02-20 05:37:00,34.3,22.3,29.91,NE,38,2.0,14.0,61,0.00,,,0.00,0.0,meteohub,2013-02-20 10:37:00,
2013-02-20 05:42:00,34.3,22.3,29.91,NE,38,5.0,14.0,61,0.00,,,0.00,0.0,meteohub,2013-02-20 10:42:00,
2013-02-20 05:47:00,34.3,22.3,29.91,NNW,335,3.0,14.0,61,0.00,,,0.00,0.0,meteohub,2013-02-20 10:47:00,
2013-02-20 05:52:00,34.3,22.3,29.92,North,0,5.0,14.0,61,0.00,,,0.00,0.0,meteohub,2013-02-20 10:52:00,
2013-02-20 05:57:00,34.2,22.1,29.92,NW,323,2.0,14.0,61,0.00,,,0.00,0.0,meteohub,2013-02-20 10:57:00,
2013-02-20 06:02:00,34.2,22.1,29.93,NNW,338,1.0,14.0,61,0.00,,,0.00,0.0,meteohub,2013-02-20 11:02:00,
2013-02-20 06:08:00,34.2,22.5,29.93,NNW,338,0.0,14.0,62,0.00,,,0.00,0.0,meteohub,2013-02-20 11:08:00,
2013-02-20 06:13:00,34.0,22.3,29.94,NW,319,5.0,14.0,62,0.00,,,0.00,0.0,meteohub,2013-02-20 11:13:00,
2013-02-20 06:18:00,33.8,21.7,29.94,NNE,15,4.0,8.0,61,0.00,,,0.00,0.0,meteohub,2013-02-20 11:18:00,
2013-02-20 06:23:00,33.6,21.6,29.94,North,355,3.0,8.0,61,0.00,,,0.00,0.0,meteohub,2013-02-20 11:23:00,
2013-02-20 06:28:00,33.6,21.6,29.94,North,5,3.0,8.0,61,0.00,,,0.00,0.0,meteohub,2013-02-20 11:28:00,
2013-02-20 06:33:00,33.4,21.4,29.94,North,355,7.0,8.0,61,0.00,,,0.00,0.0,meteohub,2013-02-20 11:33:00,
2013-02-20 06:38:00,33.6,21.2,29.94,North,0,8.0,8.0,60,0.00,,,0.00,0.0,meteohub,2013-02-20 11:38:00,
2013-02-20 06:43:00,33.4,21.0,29.94,NNE,21,2.0,15.0,60,0.00,,,0.00,0.0,meteohub,2013-02-20 11:43:00,
2013-02-20 06:48:00,33.4,21.0,29.95,NNE,28,4.0,15.0,60,0.00,,,0.00,0.0,meteohub,2013-02-20 11:48:00,
2013-02-20 06:53:00,33.4,21.0,29.95,NNW,340,8.0,15.0,60,0.00,,,0.00,0.0,meteohub,2013-02-20 11:53:00,
2013-02-20 06:58:00,33.3,20.8,29.95,ENE,71,2.0,15.0,60,0.00,,,0.00,5.0,meteohub,2013-02-20 11:58:00,
2013-02-20 07:03:00,33.3,20.8,29.95,North,0,10.0,15.0,60,0.00,,,0.00,9.0,meteohub,2013-02-20 12:03:00,
2013-02-20 07:09:00,33.1,20.7,29.95,NNE,15,2.0,15.0,60,0.00,,,0.00,14.0,meteohub,2013-02-20 12:09:00,
2013-02-20 07:14:00,32.9,20.8,29.96,NNE,25,3.0,14.0,61,0.00,,,0.00,18.0,meteohub,2013-02-20 12:14:00,
2013-02-20 07:19:00,32.7,20.8,29.96,NNE,14,1.0,14.0,61,0.00,,,0.00,21.0,meteohub,2013-02-20 12:19:00,
2013-02-20 07:24:00,32.7,20.8,29.97,NNE,30,4.0,14.0,61,0.00,,,0.00,26.0,meteohub,2013-02-20 12:24:00,
2013-02-20 07:29:00,32.7,20.8,29.97,North,0,2.0,14.0,61,0.00,,,0.00,28.0,meteohub,2013-02-20 12:29:00,
2013-02-20 07:34:00,32.7,20.8,29.97,North,0,1.0,11.0,61,0.00,,,0.00,33.0,meteohub,2013-02-20 12:34:00,
2013-02-20 07:39:00,32.7,20.8,29.97,North,5,2.0,11.0,61,0.00,,,0.00,58.0,meteohub,2013-02-20 12:39:00,
2013-02-20 07:44:00,32.7,20.8,29.97,North,10,8.0,11.0,61,0.00,,,0.00,84.0,meteohub,2013-02-20 12:44:00,
2013-02-20 07:49:00,32.7,20.8,29.98,North,0,7.0,11.0,61,0.00,,,0.00,88.0,meteohub,2013-02-20 12:49:00,
2013-02-20 07:54:00,32.9,20.5,29.98,NNW,331,6.0,14.0,60,0.00,,,0.00,104.0,meteohub,2013-02-20 12:54:00,
2013-02-20 07:59:00,32.9,20.5,29.98,NW,311,7.0,14.0,60,0.00,,,0.00,100.0,meteohub,2013-02-20 12:59:00,
2013-02-20 08:04:00,32.9,20.1,29.98,NW,322,11.0,14.0,59,0.00,,,0.00,130.0,meteohub,2013-02-20 13:04:00,
2013-02-20 08:09:00,33.1,20.3,29.98,North,0,4.0,14.0,59,0.00,,,0.00,141.0,meteohub,2013-02-20 13:09:00,
2013-02-20 08:14:00,33.3,20.5,29.98,North,355,5.0,28.0,59,0.00,,,0.00,146.0,meteohub,2013-02-20 13:14:00,
2013-02-20 08:19:00,33.3,20.1,29.98,NNW,345,10.0,28.0,58,0.00,,,0.00,211.0,meteohub,2013-02-20 13:19:00,
2013-02-20 08:25:00,33.3,20.5,29.98,NNW,337,2.0,28.0,59,0.00,,,0.00,202.0,meteohub,2013-02-20 13:25:00,
2013-02-20 08:30:00,33.1,20.3,29.98,North,11,3.0,28.0,59,0.00,,,0.00,40.0,meteohub,2013-02-20 13:30:00,
2013-02-20 08:35:00,33.1,20.3,29.98,NW,322,5.0,17.0,59,0.00,,,0.00,49.0,meteohub,2013-02-20 13:35:00,
2013-02-20 08:40:00,33.1,20.3,29.99,North,350,5.0,17.0,59,0.00,,,0.00,44.0,meteohub,2013-02-20 13:40:00,
2013-02-20 08:45:00,32.9,19.8,29.99,NNW,333,7.0,17.0,58,0.00,,,0.00,47.0,meteohub,2013-02-20 13:45:00,
2013-02-20 08:50:00,33.1,20.3,29.99,North,10,4.0,17.0,59,0.00,,,0.00,278.0,meteohub,2013-02-20 13:50:00,
2013-02-20 08:55:00,33.4,20.3,29.99,NNW,342,0.0,16.0,58,0.00,,,0.00,142.0,meteohub,2013-02-20 13:55:00,
2013-02-20 09:00:00,33.6,19.9,29.99,NNW,344,10.0,16.0,57,0.00,,,0.00,229.0,meteohub,2013-02-20 14:00:00,
2013-02-20 09:05:00,33.6,19.9,29.99,NNW,327,9.0,16.0,57,0.00,,,0.00,316.0,meteohub,2013-02-20 14:05:00,
2013-02-20 09:10:00,33.6,19.6,29.99,NW,317,4.0,16.0,56,0.00,,,0.00,301.0,meteohub,2013-02-20 14:10:00,
2013-02-20 09:15:00,33.8,19.8,29.99,NNW,342,9.0,16.0,56,0.00,,,0.00,299.0,meteohub,2013-02-20 14:15:00,
2013-02-20 09:20:00,33.8,19.8,29.98,NNE,17,8.0,16.0,56,0.00,,,0.00,264.0,meteohub,2013-02-20 14:20:00,
2013-02-20 09:25:00,33.6,19.6,29.98,NNW,345,10.0,16.0,56,0.00,,,0.00,318.0,meteohub,2013-02-20 14:25:00,
2013-02-20 09:31:00,33.6,19.6,29.98,NNW,345,8.0,16.0,56,0.00,,,0.00,318.0,meteohub,2013-02-20 14:31:00,
2013-02-20 09:36:00,34.0,20.3,29.98,North,349,2.0,16.0,57,0.00,,,0.00,304.0,meteohub,2013-02-20 14:36:00,
2013-02-20 09:41:00,34.5,20.5,29.98,NW,310,14.0,23.0,56,0.00,,,0.00,439.0,meteohub,2013-02-20 14:41:00,
2013-02-20 09:46:00,34.0,19.6,29.98,NW,309,14.0,23.0,55,0.00,,,0.00,72.0,meteohub,2013-02-20 14:46:00,
2013-02-20 09:51:00,33.4,19.4,29.99,NW,321,11.0,23.0,56,0.00,,,0.00,69.0,meteohub,2013-02-20 14:51:00,
2013-02-20 09:56:00,33.6,19.6,29.99,NW,324,9.0,23.0,56,0.00,,,0.00,411.0,meteohub,2013-02-20 14:56:00,
2013-02-20 10:01:00,34.3,20.3,29.99,North,355,8.0,17.0,56,0.00,,,0.00,512.0,meteohub,2013-02-20 15:01:00,
2013-02-20 10:06:00,34.3,20.3,29.99,North,355,8.0,17.0,56,0.00,,,0.00,608.0,meteohub,2013-02-20 15:06:00,
2013-02-20 10:11:00,34.9,20.8,29.99,NW,311,11.0,17.0,56,0.00,,,0.00,622.0,meteohub,2013-02-20 15:11:00,
2013-02-20 10:16:00,34.9,20.8,29.99,WNW,302,11.0,17.0,56,0.00,,,0.00,664.0,meteohub,2013-02-20 15:16:00,
2013-02-20 10:21:00,35.1,20.5,29.99,North,355,9.0,19.0,55,0.00,,,0.00,578.0,meteohub,2013-02-20 15:21:00,
2013-02-20 10:26:00,34.5,20.5,30.00,North,350,5.0,19.0,56,0.00,,,0.00,696.0,meteohub,2013-02-20 15:26:00,
2013-02-20 10:31:00,35.1,21.0,30.00,North,350,8.0,19.0,56,0.00,,,0.00,756.0,meteohub,2013-02-20 15:31:00,
2013-02-20 10:36:00,34.9,20.3,30.00,North,350,11.0,19.0,55,0.00,,,0.00,749.0,meteohub,2013-02-20 15:36:00,
2013-02-20 10:42:00,34.9,20.8,30.00,North,350,12.0,18.0,56,0.00,,,0.00,738.0,meteohub,2013-02-20 15:42:00,
2013-02-20 10:47:00,35.2,21.6,30.01,North,349,8.0,18.0,57,0.00,,,0.00,796.0,meteohub,2013-02-20 15:47:00,
2013-02-20 10:52:00,35.1,21.0,30.00,NW,315,6.0,18.0,56,0.00,,,0.00,763.0,meteohub,2013-02-20 15:52:00,
2013-02-20 10:57:00,34.5,20.8,30.00,NNW,340,7.0,17.0,57,0.00,,,0.00,819.0,meteohub,2013-02-20 15:57:00,
2013-02-20 11:02:00,34.9,20.8,30.00,NNW,329,9.0,17.0,56,0.00,,,0.00,886.0,meteohub,2013-02-20 16:02:00,
2013-02-20 11:07:00,34.5,20.5,30.00,North,5,2.0,17.0,56,0.00,,,0.00,269.0,meteohub,2013-02-20 16:07:00,
2013-02-20 11:12:00,35.2,21.2,30.00,NNW,337,10.0,17.0,56,0.00,,,0.00,244.0,meteohub,2013-02-20 16:12:00,
2013-02-20 11:17:00,35.2,21.2,30.00,North,355,1.0,17.0,56,0.00,,,0.00,250.0,meteohub,2013-02-20 16:17:00,
2013-02-20 11:22:00,35.6,21.4,30.00,North,0,4.0,16.0,56,0.00,,,0.00,846.0,meteohub,2013-02-20 16:22:00,
2013-02-20 11:27:00,36.0,21.4,30.00,NNW,330,5.0,16.0,55,0.00,,,0.00,294.0,meteohub,2013-02-20 16:27:00,
2013-02-20 11:32:00,35.8,21.6,30.00,NNW,337,6.0,16.0,56,0.00,,,0.00,343.0,meteohub,2013-02-20 16:32:00,
2013-02-20 11:37:00,35.4,21.2,29.99,NW,315,2.0,16.0,56,0.00,,,0.00,299.0,meteohub,2013-02-20 16:37:00,
2013-02-20 11:42:00,35.6,21.4,29.99,North,350,4.0,13.0,56,0.00,,,0.00,396.0,meteohub,2013-02-20 16:42:00,
2013-02-20 11:47:00,36.1,21.6,29.99,North,0,7.0,13.0,55,0.00,,,0.00,290.0,meteohub,2013-02-20 16:47:00,
2013-02-20 11:52:00,36.3,21.7,29.99,NNW,333,3.0,13.0,55,0.00,,,0.00,403.0,meteohub,2013-02-20 16:52:00,
2013-02-20 11:57:00,36.7,21.6,29.99,WNW,303,4.0,13.0,54,0.00,,,0.00,884.0,meteohub,2013-02-20 16:57:00,
2013-02-20 12:02:00,36.7,22.1,29.99,North,0,9.0,12.0,55,0.00,,,0.00,323.0,meteohub,2013-02-20 17:02:00,
2013-02-20 12:07:00,36.7,22.1,29.99,ENE,76,1.0,12.0,55,0.00,,,0.00,831.0,meteohub,2013-02-20 17:07:00,
2013-02-20 12:12:00,36.9,21.7,29.99,WNW,298,3.0,12.0,54,0.00,,,0.00,295.0,meteohub,2013-02-20 17:12:00,
2013-02-20 12:17:00,37.0,22.8,29.99,NNE,14,5.0,12.0,56,0.00,,,0.00,933.0,meteohub,2013-02-20 17:17:00,
2013-02-20 12:22:00,37.2,22.1,29.99,WNW,297,3.0,12.0,54,0.00,,,0.00,900.0,meteohub,2013-02-20 17:22:00,
2013-02-20 12:27:00,37.2,22.1,29.99,North,5,0.0,12.0,54,0.00,,,0.00,216.0,meteohub,2013-02-20 17:27:00,
2013-02-20 12:32:00,37.2,22.1,29.98,NNW,331,2.0,12.0,54,0.00,,,0.00,339.0,meteohub,2013-02-20 17:32:00,
2013-02-20 12:37:00,37.2,21.7,29.98,North,11,6.0,12.0,53,0.00,,,0.00,893.0,meteohub,2013-02-20 17:37:00,
2013-02-20 12:42:00,37.0,22.5,29.98,NNW,344,1.0,12.0,55,0.00,,,0.00,327.0,meteohub,2013-02-20 17:42:00,
2013-02-20 12:47:00,37.2,22.5,29.98,NW,325,7.0,12.0,55,0.00,,,0.00,329.0,meteohub,2013-02-20 17:47:00,
2013-02-20 12:53:00,37.0,21.6,29.97,NNW,341,11.0,12.0,53,0.00,,,0.00,387.0,meteohub,2013-02-20 17:53:00,
2013-02-20 12:58:00,37.2,21.7,29.97,NW,325,3.0,18.0,53,0.00,,,0.00,308.0,meteohub,2013-02-20 17:58:00,
2013-02-20 13:03:00,37.0,21.6,29.97,North,11,5.0,18.0,53,0.00,,,0.00,199.0,meteohub,2013-02-20 18:03:00,
2013-02-20 13:08:00,36.9,21.4,29.97,NW,326,5.0,18.0,53,0.00,,,0.00,195.0,meteohub,2013-02-20 18:08:00,
2013-02-20 13:13:00,36.9,21.7,29.97,NNW,348,5.0,18.0,54,0.00,,,0.00,257.0,meteohub,2013-02-20 18:13:00,
2013-02-20 13:18:00,36.9,21.4,29.97,NNW,329,7.0,18.0,53,0.00,,,0.00,162.0,meteohub,2013-02-20 18:18:00,
2013-02-20 13:23:00,36.9,21.7,29.97,WNW,294,2.0,16.0,54,0.00,,,0.00,239.0,meteohub,2013-02-20 18:23:00,
2013-02-20 13:28:00,36.9,21.7,29.97,NNW,327,3.0,16.0,54,0.00,,,0.00,181.0,meteohub,2013-02-20 18:28:00,
2013-02-20 13:33:00,36.7,21.6,29.97,North,0,2.0,16.0,54,0.00,,,0.00,325.0,meteohub,2013-02-20 18:33:00,
2013-02-20 13:38:00,36.9,21.7,29.96,North,5,5.0,16.0,54,0.00,,,0.00,346.0,meteohub,2013-02-20 18:38:00,
2013-02-20 13:43:00,36.9,21.7,29.96,NNW,348,0.0,16.0,54,0.00,,,0.00,176.0,meteohub,2013-02-20 18:43:00,
2013-02-20 13:48:00,36.7,21.6,29.97,NNE,19,6.0,14.0,54,0.00,,,0.00,290.0,meteohub,2013-02-20 18:48:00,
2013-02-20 13:53:00,37.2,22.1,29.97,NNW,327,8.0,14.0,54,0.00,,,0.00,290.0,meteohub,2013-02-20 18:53:00,
2013-02-20 13:59:00,37.6,21.9,29.96,NE,42,2.0,14.0,53,0.00,,,0.00,666.0,meteohub,2013-02-20 18:59:00,
2013-02-20 14:04:00,37.9,22.3,29.96,North,5,4.0,14.0,53,0.00,,,0.00,292.0,meteohub,2013-02-20 19:04:00,
2013-02-20 14:09:00,38.3,22.6,29.96,North,0,10.0,12.0,53,0.00,,,0.00,647.0,meteohub,2013-02-20 19:09:00,
2013-02-20 14:14:00,38.5,22.5,29.96,NW,317,6.0,12.0,52,0.00,,,0.00,622.0,meteohub,2013-02-20 19:14:00,
2013-02-20 14:19:00,38.7,23.4,29.97,NW,325,5.0,12.0,54,0.00,,,0.00,633.0,meteohub,2013-02-20 19:19:00,
2013-02-20 14:24:00,38.8,22.6,29.96,NE,39,8.0,12.0,52,0.00,,,0.00,621.0,meteohub,2013-02-20 19:24:00,
2013-02-20 14:29:00,39.0,22.8,29.97,NNW,332,8.0,12.0,52,0.00,,,0.00,608.0,meteohub,2013-02-20 19:29:00,
2013-02-20 14:34:00,39.0,22.8,29.96,North,351,12.0,14.0,52,0.00,,,0.00,478.0,meteohub,2013-02-20 19:34:00,
2013-02-20 14:39:00,39.0,22.8,29.96,NW,325,4.0,14.0,52,0.00,,,0.00,392.0,meteohub,2013-02-20 19:39:00,
2013-02-20 14:44:00,39.6,23.0,29.96,NNW,347,4.0,14.0,51,0.00,,,0.00,339.0,meteohub,2013-02-20 19:44:00,
2013-02-20 14:49:00,39.9,23.2,29.96,North,350,6.0,14.0,51,0.00,,,0.00,325.0,meteohub,2013-02-20 19:49:00,
2013-02-20 14:54:00,39.6,23.0,29.96,WNW,296,6.0,14.0,51,0.00,,,0.00,155.0,meteohub,2013-02-20 19:54:00,
2013-02-20 14:59:00,39.2,22.6,29.96,North,349,6.0,14.0,51,0.00,,,0.00,141.0,meteohub,2013-02-20 19:59:00,
2013-02-20 15:04:00,39.2,22.6,29.96,NNW,345,2.0,14.0,51,0.00,,,0.00,113.0,meteohub,2013-02-20 20:04:00,
2013-02-20 15:10:00,39.4,22.8,29.96,NNW,331,3.0,14.0,51,0.00,,,0.00,113.0,meteohub,2013-02-20 20:10:00,
2013-02-20 15:15:00,39.6,22.5,29.96,NE,36,7.0,12.0,50,0.00,,,0.00,104.0,meteohub,2013-02-20 20:15:00,
2013-02-20 15:20:00,39.2,22.1,29.96,NNE,32,6.0,10.0,50,0.00,,,0.00,272.0,meteohub,2013-02-20 20:20:00,
2013-02-20 15:25:00,39.0,21.9,29.97,NNE,26,7.0,10.0,50,0.00,,,0.00,207.0,meteohub,2013-02-20 20:25:00,
2013-02-20 15:30:00,38.7,21.6,29.97,NNE,25,3.0,10.0,50,0.00,,,0.00,218.0,meteohub,2013-02-20 20:30:00,
2013-02-20 15:35:00,38.7,21.6,29.97,NW,315,6.0,16.0,50,0.00,,,0.00,155.0,meteohub,2013-02-20 20:35:00,
2013-02-20 15:40:00,38.7,21.6,29.98,NNW,338,6.0,16.0,50,0.00,,,0.00,294.0,meteohub,2013-02-20 20:40:00,
2013-02-20 15:45:00,38.5,21.4,29.98,North,355,3.0,16.0,50,0.00,,,0.00,193.0,meteohub,2013-02-20 20:45:00,
2013-02-20 15:50:00,38.5,21.4,29.98,North,351,2.0,16.0,50,0.00,,,0.00,113.0,meteohub,2013-02-20 20:50:00,
2013-02-20 15:55:00,38.7,22.1,29.99,North,0,12.0,16.0,51,0.00,,,0.00,188.0,meteohub,2013-02-20 20:55:00,
2013-02-20 16:00:00,38.5,21.4,29.99,NNW,342,8.0,17.0,50,0.00,,,0.00,271.0,meteohub,2013-02-20 21:00:00,
2013-02-20 16:05:00,38.5,21.9,29.99,NE,42,2.0,17.0,51,0.00,,,0.00,209.0,meteohub,2013-02-20 21:05:00,
2013-02-20 16:10:00,38.7,22.6,29.99,North,355,4.0,17.0,52,0.00,,,0.00,141.0,meteohub,2013-02-20 21:10:00,
2013-02-20 16:15:00,38.7,21.6,29.99,North,11,4.0,17.0,50,0.00,,,0.00,81.0,meteohub,2013-02-20 21:15:00,
2013-02-20 16:21:00,38.7,21.6,29.99,WNW,300,6.0,11.0,50,0.00,,,0.00,84.0,meteohub,2013-02-20 21:21:00,
2013-02-20 16:26:00,38.3,21.7,30.00,NNW,332,4.0,11.0,51,0.00,,,0.00,44.0,meteohub,2013-02-20 21:26:00,
2013-02-20 16:31:00,38.1,21.6,30.00,North,5,2.0,13.0,51,0.00,,,0.00,42.0,meteohub,2013-02-20 21:31:00,
2013-02-20 16:36:00,37.9,21.4,30.00,WNW,286,6.0,13.0,51,0.00,,,0.00,58.0,meteohub,2013-02-20 21:36:00,
2013-02-20 16:41:00,37.8,21.7,30.00,NNW,327,3.0,13.0,52,0.00,,,0.00,44.0,meteohub,2013-02-20 21:41:00,
2013-02-20 16:46:00,37.8,21.7,30.00,NNE,15,5.0,13.0,52,0.00,,,0.00,60.0,meteohub,2013-02-20 21:46:00,
2013-02-20 16:51:00,37.4,21.4,30.00,NNW,348,5.0,13.0,52,0.00,,,0.00,56.0,meteohub,2013-02-20 21:51:00,
2013-02-20 16:56:00,37.2,21.2,30.00,NW,321,5.0,13.0,52,0.00,,,0.00,70.0,meteohub,2013-02-20 21:56:00,
2013-02-20 17:01:00,36.9,21.4,30.00,North,9,6.0,15.0,53,0.00,,,0.00,30.0,meteohub,2013-02-20 22:01:00,
2013-02-20 17:06:00,36.7,21.2,30.01,NW,313,9.0,15.0,53,0.00,,,0.00,35.0,meteohub,2013-02-20 22:06:00,
2013-02-20 17:11:00,36.3,20.8,30.02,North,351,5.0,15.0,53,0.00,,,0.00,26.0,meteohub,2013-02-20 22:11:00,
2013-02-20 17:16:00,36.1,20.7,30.02,NW,307,7.0,15.0,53,0.00,,,0.00,23.0,meteohub,2013-02-20 22:16:00,
2013-02-20 17:21:00,35.8,20.8,30.02,NNE,14,8.0,19.0,54,0.00,,,0.00,26.0,meteohub,2013-02-20 22:21:00,
2013-02-20 17:27:00,35.6,20.7,30.03,North,0,2.0,19.0,54,0.00,,,0.00,26.0,meteohub,2013-02-20 22:27:00,
2013-02-20 17:32:00,35.4,20.5,30.03,NW,319,3.0,16.0,54,0.00,,,0.00,18.0,meteohub,2013-02-20 22:32:00,
2013-02-20 17:37:00,35.1,20.1,30.03,NNE,19,12.0,16.0,54,0.00,,,0.00,14.0,meteohub,2013-02-20 22:37:00,
2013-02-20 17:42:00,34.9,20.3,30.03,North,355,6.0,16.0,55,0.00,,,0.00,11.0,meteohub,2013-02-20 22:42:00,
2013-02-20 17:47:00,34.5,19.9,30.03,North,355,7.0,16.0,55,0.00,,,0.00,7.0,meteohub,2013-02-20 22:47:00,
2013-02-20 17:52:00,34.3,19.8,30.04,NNW,327,7.0,18.0,55,0.00,,,0.00,0.0,meteohub,2013-02-20 22:52:00,
2013-02-20 17:57:00,34.3,20.3,30.05,North,9,1.0,18.0,56,0.00,,,0.00,0.0,meteohub,2013-02-20 22:57:00,
2013-02-20 18:02:00,34.2,20.1,30.05,NNE,22,7.0,17.0,56,0.00,,,0.00,0.0,meteohub,2013-02-20 23:02:00,
2013-02-20 18:07:00,34.0,20.3,30.05,NW,315,5.0,17.0,57,0.00,,,0.00,0.0,meteohub,2013-02-20 23:07:00,
2013-02-20 18:12:00,33.4,20.3,30.05,NNE,19,5.0,17.0,58,0.00,,,0.00,0.0,meteohub,2013-02-20 23:12:00,
2013-02-20 18:17:00,33.3,20.1,30.05,NNE,15,6.0,14.0,58,0.00,,,0.00,0.0,meteohub,2013-02-20 23:17:00,
2013-02-20 18:22:00,33.1,19.9,30.05,NNW,327,6.0,14.0,58,0.00,,,0.00,0.0,meteohub,2013-02-20 23:22:00,
2013-02-20 18:27:00,32.9,19.8,30.05,NNW,344,3.0,14.0,58,0.00,,,0.00,0.0,meteohub,2013-02-20 23:27:00,
2013-02-20 18:33:00,32.7,19.6,30.06,NE,50,10.0,14.0,58,0.00,,,0.00,0.0,meteohub,2013-02-20 23:33:00,
2013-02-20 18:38:00,32.5,19.4,30.07,NNW,333,4.0,15.0,58,0.00,,,0.00,0.0,meteohub,2013-02-20 23:38:00,
2013-02-20 18:43:00,32.4,19.2,30.08,NW,325,7.0,15.0,58,0.00,,,0.00,0.0,meteohub,2013-02-20 23:43:00,
2013-02-20 18:48:00,32.4,19.2,30.08,NNW,337,5.0,15.0,58,0.00,,,0.00,0.0,meteohub,2013-02-20 23:48:00,
2013-02-20 18:53:00,32.2,19.4,30.08,NW,321,6.0,15.0,59,0.00,,,0.00,0.0,meteohub,2013-02-20 23:53:00,
2013-02-20 18:58:00,31.8,18.7,30.08,NE,55,3.0,17.0,58,0.00,,,0.00,0.0,meteohub,2013-02-20 23:58:00,
2013-02-20 19:03:00,31.6,18.5,30.08,North,5,4.0,17.0,58,0.00,,,0.00,0.0,meteohub,2013-02-21 00:03:00,
2013-02-20 19:08:00,31.5,18.3,30.09,North,9,10.0,17.0,58,0.00,,,0.00,0.0,meteohub,2013-02-21 00:08:00,
2013-02-20 19:13:00,31.3,18.1,30.10,NW,313,10.0,16.0,58,0.00,,,0.00,0.0,meteohub,2013-02-21 00:13:00,
2013-02-20 19:18:00,31.3,18.1,30.10,NE,34,3.0,16.0,58,0.00,,,0.00,0.0,meteohub,2013-02-21 00:18:00,
2013-02-20 19:23:00,31.1,18.1,30.11,NNW,345,2.0,16.0,58,0.00,,,0.00,0.0,meteohub,2013-02-21 00:23:00,
2013-02-20 19:28:00,31.1,18.1,30.11,NNW,331,3.0,16.0,58,0.00,,,0.00,0.0,meteohub,2013-02-21 00:28:00,
2013-02-20 19:33:00,30.9,18.0,30.11,NNW,344,2.0,13.0,58,0.00,,,0.00,0.0,meteohub,2013-02-21 00:33:00,
2013-02-20 19:39:00,30.7,17.8,30.10,NNW,340,6.0,13.0,58,0.00,,,0.00,0.0,meteohub,2013-02-21 00:39:00,
2013-02-20 19:44:00,30.7,17.8,30.10,North,5,6.0,13.0,58,0.00,,,0.00,0.0,meteohub,2013-02-21 00:44:00,
2013-02-20 19:49:00,30.6,17.6,30.10,North,355,4.0,13.0,58,0.00,,,0.00,0.0,meteohub,2013-02-21 00:49:00,
2013-02-20 19:54:00,30.6,17.6,30.11,NW,308,3.0,15.0,58,0.00,,,0.00,0.0,meteohub,2013-02-21 00:54:00,
2013-02-20 19:59:00,30.4,17.4,30.11,NNW,341,8.0,15.0,58,0.00,,,0.00,0.0,meteohub,2013-02-21 00:59:00,
2013-02-20 20:04:00,30.2,17.2,30.11,North,355,5.0,17.0,58,0.00,,,0.00,0.0,meteohub,2013-02-21 01:04:00,
2013-02-20 20:09:00,30.0,17.1,30.11,NNW,348,11.0,17.0,58,0.00,,,0.00,0.0,meteohub,2013-02-21 01:09:00,
2013-02-20 20:14:00,30.0,17.1,30.12,North,0,2.0,17.0,58,0.00,,,0.00,0.0,meteohub,2013-02-21 01:14:00,
2013-02-20 20:19:00,29.8,16.9,30.11,NNW,344,11.0,16.0,58,0.00,,,0.00,0.0,meteohub,2013-02-21 01:19:00,
2013-02-20 20:24:00,29.8,16.9,30.11,NW,306,6.0,16.0,58,0.00,,,0.00,0.0,meteohub,2013-02-21 01:24:00,
2013-02-20 20:29:00,29.8,16.9,30.12,NE,46,2.0,16.0,58,0.00,,,0.00,0.0,meteohub,2013-02-21 01:29:00,
2013-02-20 20:34:00,29.7,16.7,30.12,North,5,7.0,17.0,58,0.00,,,0.00,0.0,meteohub,2013-02-21 01:34:00,
2013-02-20 20:40:00,29.5,16.5,30.12,NNW,346,0.0,17.0,58,0.00,,,0.00,0.0,meteohub,2013-02-21 01:40:00,
2013-02-20 20:45:00,29.5,16.5,30.12,North,355,7.0,17.0,58,0.00,,,0.00,0.0,meteohub,2013-02-21 01:45:00,
2013-02-20 20:50:00,29.3,16.0,30.13,North,0,12.0,15.0,57,0.00,,,0.00,0.0,meteohub,2013-02-21 01:50:00,
2013-02-20 20:55:00,29.1,15.8,30.13,NNW,348,3.0,15.0,57,0.00,,,0.00,0.0,meteohub,2013-02-21 01:55:00,
2013-02-20 21:00:00,28.9,15.6,30.12,NNE,19,6.0,14.0,57,0.00,,,0.00,0.0,meteohub,2013-02-21 02:00:00,
2013-02-20 21:05:00,28.9,15.6,30.12,NNW,336,3.0,14.0,57,0.00,,,0.00,0.0,meteohub,2013-02-21 02:05:00,
2013-02-20 21:10:00,28.8,15.4,30.12,North,351,2.0,14.0,57,0.00,,,0.00,0.0,meteohub,2013-02-21 02:10:00,
2013-02-20 21:15:00,28.8,15.4,30.13,NNE,19,7.0,14.0,57,0.00,,,0.00,0.0,meteohub,2013-02-21 02:15:00,
2013-02-20 21:20:00,28.8,15.4,30.13,NNW,329,3.0,16.0,57,0.00,,,0.00,0.0,meteohub,2013-02-21 02:20:00,
2013-02-20 21:25:00,28.8,15.4,30.13,NNW,334,3.0,16.0,57,0.00,,,0.00,0.0,meteohub,2013-02-21 02:25:00,
2013-02-20 21:30:00,28.6,15.3,30.13,North,355,8.0,16.0,57,0.00,,,0.00,0.0,meteohub,2013-02-21 02:30:00,
2013-02-20 21:35:00,28.6,15.3,30.13,NNW,336,3.0,14.0,57,0.00,,,0.00,0.0,meteohub,2013-02-21 02:35:00,
2013-02-20 21:40:00,28.4,15.1,30.14,North,0,10.0,14.0,57,0.00,,,0.00,0.0,meteohub,2013-02-21 02:40:00,
2013-02-20 21:46:00,28.2,14.9,30.14,North,355,2.0,14.0,57,0.00,,,0.00,0.0,meteohub,2013-02-21 02:46:00,
2013-02-20 21:51:00,28.2,14.9,30.14,North,0,3.0,15.0,57,0.00,,,0.00,0.0,meteohub,2013-02-21 02:51:00,
2013-02-20 21:56:00,28.2,14.9,30.14,NNW,345,4.0,15.0,57,0.00,,,0.00,0.0,meteohub,2013-02-21 02:56:00,
2013-02-20 22:01:00,28.0,14.7,30.14,NNE,16,3.0,16.0,57,0.00,,,0.00,0.0,meteohub,2013-02-21 03:01:00,
2013-02-20 22:06:00,28.0,14.7,30.14,NNW,346,3.0,16.0,57,0.00,,,0.00,0.0,meteohub,2013-02-21 03:06:00,
2013-02-20 22:11:00,27.9,14.5,30.14,NW,306,10.0,16.0,57,0.00,,,0.00,0.0,meteohub,2013-02-21 03:11:00,
2013-02-20 22:16:00,27.9,14.5,30.15,NNE,18,0.0,16.0,57,0.00,,,0.00,0.0,meteohub,2013-02-21 03:16:00,
2013-02-20 22:21:00,27.9,14.5,30.14,NNW,339,2.0,14.0,57,0.00,,,0.00,0.0,meteohub,2013-02-21 03:21:00,
2013-02-20 22:26:00,27.7,14.9,30.14,NNW,338,4.0,14.0,58,0.00,,,0.00,0.0,meteohub,2013-02-21 03:26:00,
2013-02-20 22:31:00,27.7,14.9,30.14,North,5,1.0,11.0,58,0.00,,,0.00,0.0,meteohub,2013-02-21 03:31:00,
2013-02-20 22:36:00,27.7,14.9,30.14,North,10,6.0,11.0,58,0.00,,,0.00,0.0,meteohub,2013-02-21 03:36:00,
2013-02-20 22:41:00,27.5,14.7,30.14,North,5,5.0,11.0,58,0.00,,,0.00,0.0,meteohub,2013-02-21 03:41:00,
2013-02-20 22:47:00,27.5,14.7,30.15,WNW,292,4.0,11.0,58,0.00,,,0.00,0.0,meteohub,2013-02-21 03:47:00,
2013-02-20 22:52:00,27.3,14.5,30.14,NNW,348,1.0,11.0,58,0.00,,,0.00,0.0,meteohub,2013-02-21 03:52:00,
2013-02-20 22:57:00,27.3,14.5,30.14,NNE,18,5.0,11.0,58,0.00,,,0.00,0.0,meteohub,2013-02-21 03:57:00,
2013-02-20 23:02:00,27.3,14.5,30.15,NNW,332,0.0,12.0,58,0.00,,,0.00,0.0,meteohub,2013-02-21 04:02:00,
2013-02-20 23:07:00,27.1,14.4,30.15,NNE,32,1.0,12.0,58,0.00,,,0.00,0.0,meteohub,2013-02-21 04:07:00,
2013-02-20 23:12:00,27.1,14.4,30.14,North,355,8.0,12.0,58,0.00,,,0.00,0.0,meteohub,2013-02-21 04:12:00,
2013-02-20 23:17:00,27.1,14.4,30.14,North,355,7.0,10.0,58,0.00,,,0.00,0.0,meteohub,2013-02-21 04:17:00,
2013-02-20 23:22:00,27.1,14.4,30.14,NW,323,4.0,10.0,58,0.00,,,0.00,0.0,meteohub,2013-02-21 04:22:00,
2013-02-20 23:27:00,27.1,14.4,30.15,NNW,343,1.0,10.0,58,0.00,,,0.00,0.0,meteohub,2013-02-21 04:27:00,
2013-02-20 23:32:00,27.0,14.5,30.14,North,0,8.0,11.0,59,0.00,,,0.00,0.0,meteohub,2013-02-21 04:32:00,
2013-02-20 23:37:00,27.0,14.2,30.13,ENE,59,6.0,11.0,58,0.00,,,0.00,0.0,meteohub,2013-02-21 04:37:00,
2013-02-20 23:43:00,27.0,14.2,30.13,WNW,292,0.0,19.0,58,0.00,,,0.00,0.0,meteohub,2013-02-21 04:43:00,
2013-02-20 23:48:00,27.0,14.5,30.14,NNW,341,2.0,19.0,59,0.00,,,0.00,0.0,meteohub,2013-02-21 04:48:00,
2013-02-20 23:53:00,27.0,14.2,30.13,NNW,346,2.0,19.0,58,0.00,,,0.00,0.0,meteohub,2013-02-21 04:53:00,
2013-02-20 23:58:00,26.8,14.4,30.13,North,0,3.0,11.0,59,0.00,,,0.00,0.0,meteohub,2013-02-21 04:58:00,